When you browse on this site, cookies collect data to enhance your experience and personalize the content and advertising you see.
Visit our Privacy Policy to learn more. By continuing to use the site, you agree to this use of cookies and data.
  • In Germany
  • List of Countries
  • For 7 days
  • Water Temperature
  • Weather Map
  • Weather Widgets
  • user-avatar
    Login

    Hourly Weather Gloucester

    Today, 24 September, Tuesday

    Time Temperature Precipitation Wind Pressure Humidity
    00:00 +17°C° 0 mm 3 mps 747 mmHg 95%
    01:00 +17°C° 0.3 mm 3 mps 746 mmHg 95%
    02:00 +17°C° 0.3 mm 3 mps 746 mmHg 96%
    03:00 +17°C° 0.3 mm 3 mps 745 mmHg 96%
    04:00 +17°C° 2.9 mm 3 mps 744 mmHg 97%
    05:00 +16°C° 2.9 mm 3 mps 743 mmHg 97%
    06:00 +16°C° 2.9 mm 3 mps 743 mmHg 97%
    07:00 +16°C° 2.4 mm 3 mps 742 mmHg 95%
    08:00 +17°C° 2.4 mm 3 mps 742 mmHg 92%
    09:00 +17°C° 2.4 mm 4 mps 742 mmHg 90%
    10:00 +17°C° 1.3 mm 5 mps 742 mmHg 86%
    11:00 +17°C° 1.3 mm 6 mps 742 mmHg 83%
    12:00 +18°C° 1.3 mm 8 mps 742 mmHg 79%
    13:00 +18°C° 0.2 mm 8 mps 743 mmHg 77%
    14:00 +18°C° 0.2 mm 7 mps 743 mmHg 75%
    15:00 +18°C° 0.2 mm 7 mps 743 mmHg 72%
    16:00 +17°C° 0.1 mm 6 mps 743 mmHg 78%
    17:00 +16°C° 0.1 mm 5 mps 743 mmHg 83%
    18:00 +15°C° 0.1 mm 5 mps 743 mmHg 89%
    19:00 +14°C° 0.2 mm 5 mps 743 mmHg 90%
    20:00 +14°C° 0.2 mm 5 mps 743 mmHg 90%
    21:00 +14°C° 0.2 mm 5 mps 743 mmHg 91%
    22:00 +14°C° 0.9 mm 5 mps 743 mmHg 92%
    23:00 +14°C° 0.9 mm 5 mps 742 mmHg 93%

    Tomorrow, 25 September, Wednesday

    Time Temperature Precipitation Wind Pressure Humidity
    00:00 +13°C° 0.9 mm 6 mps 742 mmHg 95%
    01:00 +14°C° 0.5 mm 6 mps 741 mmHg 94%
    02:00 +14°C° 0.5 mm 5 mps 741 mmHg 94%
    03:00 +14°C° 0.5 mm 5 mps 741 mmHg 94%
    04:00 +14°C° 0.6 mm 5 mps 741 mmHg 95%
    05:00 +14°C° 0.6 mm 4 mps 740 mmHg 95%
    06:00 +14°C° 0.6 mm 4 mps 740 mmHg 95%
    07:00 +15°C° 0.1 mm 4 mps 741 mmHg 92%
    08:00 +17°C° 0.1 mm 4 mps 741 mmHg 89%
    09:00 +17°C° 0.1 mm 4 mps 742 mmHg 86%
    10:00 +18°C° 0.3 mm 4 mps 742 mmHg 83%
    11:00 +19°C° 0.3 mm 4 mps 743 mmHg 80%
    12:00 +19°C° 0.3 mm 5 mps 743 mmHg 77%
    13:00 +19°C° 0.4 mm 5 mps 744 mmHg 78%
    14:00 +19°C° 0.4 mm 6 mps 744 mmHg 78%
    15:00 +19°C° 0.4 mm 6 mps 744 mmHg 79%
    16:00 +17°C° 0.1 mm 5 mps 745 mmHg 81%
    17:00 +16°C° 0.1 mm 5 mps 745 mmHg 84%
    18:00 +15°C° 0.1 mm 4 mps 745 mmHg 87%
    19:00 +14°C° 0 mm 4 mps 746 mmHg 90%
    20:00 +14°C° 0 mm 3 mps 746 mmHg 92%
    21:00 +13°C° 0 mm 3 mps 746 mmHg 95%
    22:00 +14°C° 0.2 mm 4 mps 746 mmHg 95%
    23:00 +14°C° 0.2 mm 4 mps 745 mmHg 95%

    Day after tomorrow, 26 September, Thursday

    Time Temperature Precipitation Wind Pressure Humidity
    00:00 +15°C° 0.2 mm 5 mps 745 mmHg 95%
    01:00 +15°C° 0.4 mm 5 mps 745 mmHg 95%
    02:00 +16°C° 0.4 mm 5 mps 745 mmHg 95%
    03:00 +16°C° 0.4 mm 6 mps 745 mmHg 95%
    04:00 +16°C° 0.3 mm 5 mps 745 mmHg 94%
    05:00 +15°C° 0.3 mm 5 mps 745 mmHg 94%
    06:00 +15°C° 0.3 mm 5 mps 745 mmHg 93%
    07:00 +15°C° 0.4 mm 5 mps 745 mmHg 92%
    08:00 +15°C° 0.4 mm 5 mps 745 mmHg 91%
    09:00 +15°C° 0.4 mm 6 mps 746 mmHg 90%
    10:00 +16°C° 0.1 mm 6 mps 746 mmHg 83%
    11:00 +16°C° 0.1 mm 6 mps 746 mmHg 76%
    12:00 +17°C° 0.1 mm 7 mps 746 mmHg 69%
    13:00 +16°C° 0.2 mm 7 mps 746 mmHg 70%
    14:00 +16°C° 0.2 mm 7 mps 746 mmHg 70%
    15:00 +16°C° 0.2 mm 8 mps 746 mmHg 71%
    16:00 +15°C° 0.1 mm 7 mps 746 mmHg 74%
    17:00 +14°C° 0.1 mm 6 mps 746 mmHg 78%
    18:00 +13°C° 0.1 mm 5 mps 746 mmHg 81%
    19:00 +13°C° 0 mm 5 mps 747 mmHg 81%
    20:00 +13°C° 0 mm 5 mps 747 mmHg 81%
    21:00 +12°C° 0 mm 5 mps 747 mmHg 81%
    22:00 +12°C° 0.1 mm 5 mps 747 mmHg 83%
    23:00 +12°C° 0.1 mm 5 mps 747 mmHg 86%

    27 September, Friday

    Time Temperature Precipitation Wind Pressure Humidity
    00:00 +12°C° 0.1 mm 5 mps 747 mmHg 88%
    01:00 +11°C° 0 mm 6 mps 747 mmHg 87%
    02:00 +11°C° 0 mm 6 mps 746 mmHg 87%
    03:00 +11°C° 0 mm 6 mps 746 mmHg 87%
    04:00 +11°C° 0.2 mm 6 mps 746 mmHg 87%
    05:00 +11°C° 0.2 mm 7 mps 745 mmHg 88%
    06:00 +12°C° 0.2 mm 7 mps 745 mmHg 88%
    07:00 +12°C° 0.3 mm 7 mps 745 mmHg 85%
    08:00 +14°C° 0.3 mm 7 mps 746 mmHg 82%
    09:00 +14°C° 0.3 mm 7 mps 746 mmHg 78%
    10:00 +15°C° 0.1 mm 8 mps 746 mmHg 76%
    11:00 +15°C° 0.1 mm 8 mps 747 mmHg 73%
    12:00 +16°C° 0.1 mm 8 mps 747 mmHg 70%
    13:00 +15°C° 0.2 mm 8 mps 747 mmHg 72%
    14:00 +15°C° 0.2 mm 8 mps 747 mmHg 74%
    15:00 +15°C° 0.2 mm 8 mps 746 mmHg 75%
    16:00 +13°C° 0.2 mm 8 mps 747 mmHg 77%
    17:00 +14°C° 0.2 mm 7 mps 747 mmHg 80%
    18:00 +12°C° 0.2 mm 7 mps 747 mmHg 82%
    19:00 +12°C° 0.1 mm 7 mps 747 mmHg 83%
    20:00 +12°C° 0.1 mm 7 mps 747 mmHg 84%
    21:00 +11°C° 0.1 mm 7 mps 748 mmHg 85%
    22:00 +11°C° 0.2 mm 6 mps 748 mmHg 86%
    23:00 +11°C° 0.2 mm 6 mps 748 mmHg 87%

    28 September, Saturday

    Time Temperature Precipitation Wind Pressure Humidity
    00:00 +11°C° 0.2 mm 6 mps 748 mmHg 88%
    01:00 +11°C° 0.2 mm 6 mps 749 mmHg 88%
    02:00 +12°C° 0.2 mm 5 mps 749 mmHg 89%
    03:00 +12°C° 0.2 mm 5 mps 749 mmHg 89%
    04:00 +12°C° 0.2 mm 5 mps 749 mmHg 89%
    05:00 +12°C° 0.2 mm 5 mps 749 mmHg 90%
    06:00 +12°C° 0.2 mm 5 mps 750 mmHg 90%
    07:00 +13°C° 0.1 mm 6 mps 750 mmHg 87%
    08:00 +12°C° 0.1 mm 7 mps 750 mmHg 85%
    09:00 +14°C° 0.1 mm 7 mps 751 mmHg 82%
    10:00 +14°C° 0.1 mm 7 mps 751 mmHg 81%
    11:00 +14°C° 0.1 mm 7 mps 751 mmHg 81%
    12:00 +14°C° 0.1 mm 7 mps 752 mmHg 80%
    13:00 +15°C° 0.1 mm 7 mps 752 mmHg 77%
    14:00 +15°C° 0.1 mm 7 mps 752 mmHg 74%
    15:00 +15°C° 0.1 mm 7 mps 751 mmHg 72%
    16:00 +14°C° 0 mm 6 mps 751 mmHg 75%
    17:00 +13°C° 0 mm 5 mps 751 mmHg 77%
    18:00 +12°C° 0 mm 4 mps 751 mmHg 80%
    19:00 +12°C° 0 mm 4 mps 751 mmHg 83%
    20:00 +12°C° 0 mm 3 mps 751 mmHg 85%
    21:00 +11°C° 0 mm 3 mps 751 mmHg 87%
    22:00 +12°C° 0.4 mm 3 mps 751 mmHg 88%
    23:00 +12°C° 0.4 mm 4 mps 750 mmHg 90%

    29 September, Sunday

    Time Temperature Precipitation Wind Pressure Humidity
    00:00 +12°C° 0.4 mm 4 mps 749 mmHg 91%
    01:00 +12°C° 0.5 mm 4 mps 749 mmHg 93%
    02:00 +12°C° 0.5 mm 4 mps 748 mmHg 94%
    03:00 +12°C° 0.5 mm 4 mps 747 mmHg 95%
    04:00 +12°C° 0.8 mm 5 mps 746 mmHg 95%
    05:00 +13°C° 0.8 mm 6 mps 745 mmHg 94%
    06:00 +13°C° 0.8 mm 6 mps 744 mmHg 94%
    07:00 +13°C° 0.5 mm 6 mps 744 mmHg 94%
    08:00 +14°C° 0.5 mm 6 mps 743 mmHg 94%
    09:00 +14°C° 0.5 mm 6 mps 742 mmHg 94%
    10:00 +15°C° 0.3 mm 6 mps 742 mmHg 92%
    11:00 +16°C° 0.3 mm 6 mps 742 mmHg 89%
    12:00 +17°C° 0.3 mm 6 mps 741 mmHg 87%
    13:00 +17°C° 0.3 mm 6 mps 741 mmHg 87%
    14:00 +17°C° 0.3 mm 6 mps 741 mmHg 87%
    15:00 +17°C° 0.3 mm 6 mps 741 mmHg 87%
    16:00 +16°C° 0.1 mm 6 mps 742 mmHg 87%
    17:00 +16°C° 0.1 mm 6 mps 742 mmHg 88%
    18:00 +15°C° 0.1 mm 6 mps 743 mmHg 89%
    19:00 +14°C° 0 mm 5 mps 744 mmHg 90%
    20:00 +12°C° 0 mm 4 mps 745 mmHg 92%
    21:00 +11°C° 0 mm 3 mps 746 mmHg 93%
    22:00 +11°C° 0 mm 3 mps 746 mmHg 93%
    23:00 +12°C° 0 mm 2 mps 747 mmHg 93%
    Show more